| time (UTC) | temp F | wind direction | speed MPH | gust MPH | rain 1hr in | rain 24hr in | rain mn in | humidity % | barometer mb |
| 20260508140554 | 72 | 315 | 7.0 | 12.0 | 0.00 | 0.00 | 0.00 | 32 | 1008.7 |
| 20260508140523 | 72 | 315 | 7.0 | 12.0 | 0.00 | 0.00 | 0.00 | 32 | 1008.7 |
| 20260508140321 | 72 | 315 | 7.0 | 12.0 | 0.00 | 0.00 | 0.00 | 32 | 1008.8 |
| 20260508135917 | 72 | 315 | 10.0 | 15.0 | 0.00 | 0.00 | 0.00 | 32 | 1008.7 |
| 20260508135552 | 72 | 315 | 10.0 | 14.0 | 0.00 | 0.00 | 0.00 | 32 | 1008.7 |
| 20260508135513 | 72 | 315 | 10.0 | 14.0 | 0.00 | 0.00 | 0.00 | 32 | 1008.7 |
| 20260508135310 | 72 | 315 | 8.0 | 13.0 | 0.00 | 0.00 | 0.00 | 32 | 1008.6 |
| 20260508134906 | 71 | 315 | 11.0 | 12.0 | 0.00 | 0.00 | 0.00 | 32 | 1008.8 |
| 20260508134704 | 71 | 315 | 12.0 | 14.0 | 0.00 | 0.00 | 0.00 | 32 | 1008.7 |
| 20260508134533 | 71 | 315 | 13.0 | 14.0 | 0.00 | 0.00 | 0.00 | 32 | 1008.7 |
| 20260508134500 | 71 | 315 | 13.0 | 14.0 | 0.00 | 0.00 | 0.00 | 32 | 1008.7 |
| 20260508134408 | 71 | 315 | 9.0 | 10.0 | 0.00 | 0.00 | 0.00 | 32 | 1008.6 |
| 20260508134258 | 71 | 315 | 9.0 | 10.0 | 0.00 | 0.00 | 0.00 | 32 | 1008.6 |
| 20260508133854 | 71 | 315 | 7.0 | 14.0 | 0.00 | 0.00 | 0.00 | 33 | 1008.7 |
| 20260508133247 | 71 | 315 | 13.0 | 15.0 | 0.00 | 0.00 | 0.00 | 32 | 1008.7 |
| 20260508133045 | 71 | 315 | 13.0 | 13.0 | 0.00 | 0.00 | 0.00 | 33 | 1008.7 |
| 20260508132843 | 71 | 315 | 7.0 | 11.0 | 0.00 | 0.00 | 0.00 | 32 | 1008.5 |
| 20260508132643 | 70 | 315 | 8.0 | 10.0 | 0.00 | 0.00 | 0.00 | 32 | 1008.6 |
| 20260508132438 | 70 | 315 | 6.0 | 8.0 | 0.00 | 0.00 | 0.00 | 31 | 1008.7 |
| 20260508132236 | 70 | 315 | 7.0 | 8.0 | 0.00 | 0.00 | 0.00 | 32 | 1008.7 |
| 20260508132034 | 70 | 315 | 4.0 | 10.0 | 0.00 | 0.00 | 0.00 | 31 | 1008.8 |
| 20260508131914 | 70 | 315 | 7.0 | 12.0 | 0.00 | 0.00 | 0.00 | 31 | 1008.8 |
| 20260508131834 | 70 | 315 | 7.0 | 12.0 | 0.00 | 0.00 | 0.00 | 31 | 1008.8 |
| 20260508131632 | 70 | 315 | 8.0 | 12.0 | 0.00 | 0.00 | 0.00 | 30 | 1008.8 |
| 20260508131426 | 71 | 315 | 7.0 | 12.0 | 0.00 | 0.00 | 0.00 | 30 | 1008.7 |
| 20260508131055 | 71 | 315 | 10.0 | 12.0 | 0.00 | 0.00 | 0.00 | 30 | 1008.7 |
| 20260508131022 | 71 | 315 | 10.0 | 12.0 | 0.00 | 0.00 | 0.00 | 30 | 1008.7 |
| 20260508130618 | 71 | 315 | 8.0 | 14.0 | 0.00 | 0.00 | 0.00 | 30 | 1008.8 |
| 20260508130415 | 71 | 315 | 7.0 | 14.0 | 0.00 | 0.00 | 0.00 | 29 | 1008.7 |
| 20260508125809 | 71 | 315 | 8.0 | 13.0 | 0.00 | 0.00 | 0.00 | 29 | 1008.8 |
| 20260508125607 | 71 | 315 | 10.0 | 12.0 | 0.00 | 0.00 | 0.00 | 29 | 1008.8 |
| 20260508125404 | 71 | 315 | 10.0 | 14.0 | 0.00 | 0.00 | 0.00 | 30 | 1008.7 |
| 20260508125202 | 71 | 315 | 11.0 | 14.0 | 0.00 | 0.00 | 0.00 | 30 | 1008.7 |
| 20260508124959 | 71 | 315 | 11.0 | 12.0 | 0.00 | 0.00 | 0.00 | 30 | 1008.6 |
| 20260508124758 | 71 | 315 | 7.0 | 14.0 | 0.00 | 0.00 | 0.00 | 31 | 1008.7 |
| 20260508124352 | 71 | 315 | 8.0 | 11.0 | 0.00 | 0.00 | 0.00 | 31 | 1008.6 |
| 20260508124150 | 71 | 315 | 6.0 | 15.0 | 0.00 | 0.00 | 0.00 | 31 | 1008.5 |
| 20260508123948 | 70 | 315 | 11.0 | 15.0 | 0.00 | 0.00 | 0.00 | 31 | 1008.7 |
| 20260508123554 | 70 | 315 | 7.0 | 14.0 | 0.00 | 0.00 | 0.00 | 32 | 1008.5 |
| 20260508123351 | 70 | 315 | 11.0 | 14.0 | 0.00 | 0.00 | 0.00 | 32 | 1008.7 |
| 20260508122745 | 70 | 326 | 12.0 | 12.0 | 0.00 | 0.00 | 0.00 | 32 | 1008.7 |
| 20260508122340 | 69 | 303 | 7.0 | 11.0 | 0.00 | 0.00 | 0.00 | 32 | 1008.7 |
| 20260508121533 | 69 | 326 | 8.0 | 13.0 | 0.00 | 0.00 | 0.00 | 31 | 1008.8 |
| 20260508120924 | 69 | 315 | 5.0 | 9.0 | 0.00 | 0.00 | 0.00 | 32 | 1008.8 |
| 20260508120520 | 69 | 247 | 10.0 | 10.0 | 0.00 | 0.00 | 0.00 | 33 | 1008.9 |
| 20260508115913 | 69 | 292 | 13.0 | 13.0 | 0.00 | 0.00 | 0.00 | 33 | 1008.9 |
| 20260508115511 | 69 | 292 | 7.0 | 8.0 | 0.00 | 0.00 | 0.00 | 35 | 1008.9 |
| 20260508115306 | 68 | 315 | 6.0 | 11.0 | 0.00 | 0.00 | 0.00 | 34 | 1008.8 |
| 20260508114901 | 68 | 315 | 9.0 | 9.0 | 0.00 | 0.00 | 0.00 | 34 | 1008.8 |
| 20260508114457 | 68 | 292 | 9.0 | 12.0 | 0.00 | 0.00 | 0.00 | 34 | 1008.9 |
| 20260508114254 | 68 | 315 | 8.0 | 9.0 | 0.00 | 0.00 | 0.00 | 33 | 1008.9 |
| 20260508114052 | 68 | 337 | 6.0 | 9.0 | 0.00 | 0.00 | 0.00 | 33 | 1008.9 |
| 20260508113850 | 68 | 0 | 6.0 | 13.0 | 0.00 | 0.00 | 0.00 | 33 | 1008.9 |
| 20260508113715 | 68 | 337 | 9.0 | 16.0 | 0.00 | 0.00 | 0.00 | 32 | 1008.9 |
| 20260508113648 | 68 | 0 | 10.0 | 14.0 | 0.00 | 0.00 | 0.00 | 33 | 1009.0 |
| 20260508113041 | 68 | 337 | 9.0 | 16.0 | 0.00 | 0.00 | 0.00 | 32 | 1008.9 |
| 20260508112839 | 68 | 315 | 12.0 | 15.0 | 0.00 | 0.00 | 0.00 | 33 | 1008.9 |
| 20260508110817 | 68 | 315 | 12.0 | 17.0 | 0.00 | 0.00 | 0.00 | 31 | 1009.1 |
| 20260508110007 | 68 | 315 | 16.0 | 16.0 | 0.00 | 0.00 | 0.00 | 32 | 1009.1 |
| 20260508105805 | 68 | 315 | 12.0 | 16.0 | 0.00 | 0.00 | 0.00 | 33 | 1009.1 |
| 20260508105400 | 68 | 315 | 15.0 | 17.0 | 0.00 | 0.00 | 0.00 | 33 | 1009.1 |
| 20260508104753 | 68 | 315 | 12.0 | 14.0 | 0.00 | 0.00 | 0.00 | 32 | 1009.2 |
| 20260508103742 | 68 | 315 | 12.0 | 13.0 | 0.00 | 0.00 | 0.00 | 33 | 1009.4 |
| 20260508103540 | 68 | 303 | 10.0 | 15.0 | 0.00 | 0.00 | 0.00 | 33 | 1009.3 |
| 20260508103337 | 68 | 315 | 11.0 | 15.0 | 0.00 | 0.00 | 0.00 | 33 | 1009.3 |
| 20260508102933 | 68 | 315 | 10.0 | 15.0 | 0.00 | 0.00 | 0.00 | 32 | 1009.3 |
| 20260508102730 | 68 | 326 | 12.0 | 15.0 | 0.00 | 0.00 | 0.00 | 32 | 1009.2 |
| 20260508102528 | 68 | 315 | 9.0 | 16.0 | 0.00 | 0.00 | 0.00 | 32 | 1009.3 |
| 20260508102327 | 68 | 303 | 14.0 | 16.0 | 0.00 | 0.00 | 0.00 | 32 | 1009.2 |
| 20260508101922 | 69 | 315 | 11.0 | 16.0 | 0.00 | 0.00 | 0.00 | 31 | 1009.2 |
| 20260508101517 | 69 | 292 | 12.0 | 15.0 | 0.00 | 0.00 | 0.00 | 30 | 1009.2 |
| 20260508101315 | 69 | 292 | 12.0 | 14.0 | 0.00 | 0.00 | 0.00 | 31 | 1009.2 |
| 20260508100910 | 69 | 303 | 12.0 | 16.0 | 0.00 | 0.00 | 0.00 | 30 | 1009.2 |
| 20260508100506 | 69 | 303 | 9.0 | 12.0 | 0.00 | 0.00 | 0.00 | 29 | 1009.3 |
| 20260508100303 | 69 | 315 | 10.0 | 12.0 | 0.00 | 0.00 | 0.00 | 29 | 1009.4 |
| 20260508095858 | 70 | 292 | 11.0 | 13.0 | 0.00 | 0.00 | 0.00 | 28 | 1009.4 |
| 20260508095454 | 70 | 303 | 10.0 | 12.0 | 0.00 | 0.00 | 0.00 | 28 | 1009.3 |
| 20260508095051 | 70 | 292 | 10.0 | 11.0 | 0.00 | 0.00 | 0.00 | 28 | 1009.3 |
| 20260508094848 | 70 | 0 | 9.0 | 11.0 | 0.00 | 0.00 | 0.00 | 28 | 1009.3 |
| 20260508094241 | 70 | 348 | 8.0 | 11.0 | 0.00 | 0.00 | 0.00 | 27 | 1009.3 |
| 20260508094038 | 71 | 292 | 7.0 | 10.0 | 0.00 | 0.00 | 0.00 | 27 | 1009.3 |
| 20260508093836 | 71 | 292 | 8.0 | 10.0 | 0.00 | 0.00 | 0.00 | 27 | 1009.4 |
| 20260508091851 | 73 | 315 | 7.0 | 9.0 | 0.00 | 0.00 | 0.00 | 24 | 1009.4 |
| 20260508091815 | 73 | 315 | 7.0 | 9.0 | 0.00 | 0.00 | 0.00 | 24 | 1009.4 |
| 20260508091611 | 73 | 337 | 9.0 | 11.0 | 0.00 | 0.00 | 0.00 | 23 | 1009.3 |
| 20260508085953 | 76 | 337 | 8.0 | 9.0 | 0.00 | 0.00 | 0.00 | 21 | 1009.4 |
| 20260508085346 | 77 | 315 | 6.0 | 8.0 | 0.00 | 0.00 | 0.00 | 20 | 1009.5 |
| 20260508084537 | 78 | 292 | 6.0 | 8.0 | 0.00 | 0.00 | 0.00 | 21 | 1009.4 |
| 20260508083932 | 79 | 315 | 4.0 | 7.0 | 0.00 | 0.00 | 0.00 | 20 | 1009.4 |
| 20260508083728 | 79 | 315 | 5.0 | 7.0 | 0.00 | 0.00 | 0.00 | 20 | 1009.4 |
| 20260508083526 | 79 | 292 | 6.0 | 7.0 | 0.00 | 0.00 | 0.00 | 20 | 1009.4 |
| 20260508082918 | 80 | 292 | 7.0 | 7.0 | 0.00 | 0.00 | 0.00 | 19 | 1009.4 |
| 20260508082312 | 80 | 315 | 4.0 | 5.0 | 0.00 | 0.00 | 0.00 | 21 | 1009.4 |
| 20260508082110 | 80 | 315 | 4.0 | 5.0 | 0.00 | 0.00 | 0.00 | 21 | 1009.4 |
| 20260508081909 | 80 | 315 | 4.0 | 4.0 | 0.00 | 0.00 | 0.00 | 21 | 1009.5 |
| 20260508081713 | 80 | 315 | 4.0 | 4.0 | 0.00 | 0.00 | 0.00 | 21 | 1009.5 |
| 20260508081503 | 80 | 270 | 4.0 | 5.0 | 0.00 | 0.00 | 0.00 | 21 | 1009.5 |
| 20260508081301 | 80 | 270 | 5.0 | 6.0 | 0.00 | 0.00 | 0.00 | 20 | 1009.5 |
| 20260508081059 | 81 | 270 | 3.0 | 6.0 | 0.00 | 0.00 | 0.00 | 19 | 1009.5 |
| 20260508080856 | 81 | 315 | 5.0 | 6.0 | 0.00 | 0.00 | 0.00 | 18 | 1009.5 |
| 20260508080654 | 81 | 303 | 4.0 | 6.0 | 0.00 | 0.00 | 0.00 | 18 | 1009.6 |
| 20260508080451 | 81 | 315 | 6.0 | 6.0 | 0.00 | 0.00 | 0.00 | 20 | 1009.6 |
| 20260508080131 | 81 | 315 | 6.0 | 6.0 | 0.00 | 0.00 | 0.00 | 21 | 1009.5 |
| 20260508080048 | 81 | 315 | 6.0 | 6.0 | 0.00 | 0.00 | 0.00 | 21 | 1009.5 |
| 20260508075036 | 81 | 315 | 3.0 | 4.0 | 0.00 | 0.00 | 0.00 | 25 | 1009.4 |
| 20260508074228 | 80 | 315 | 3.0 | 3.0 | 0.00 | 0.00 | 0.00 | 27 | 1009.5 |
| 20260508074024 | 80 | 315 | 2.0 | 3.0 | 0.00 | 0.00 | 0.00 | 26 | 1009.5 |
| 20260508073419 | 79 | 315 | 3.0 | 4.0 | 0.00 | 0.00 | 0.00 | 25 | 1009.5 |
| 20260508072407 | 78 | 315 | 1.0 | 1.0 | 0.00 | 0.00 | 0.00 | 28 | 1009.4 |
| 20260508072105 | 77 | 315 | 1.0 | 3.0 | 0.00 | 0.00 | 0.00 | 28 | 1009.4 |
| 20260508072002 | 77 | 315 | 1.0 | 3.0 | 0.00 | 0.00 | 0.00 | 28 | 1009.4 |
| 20260508071805 | 77 | 315 | 1.0 | 2.0 | 0.00 | 0.00 | 0.00 | 29 | 1009.4 |
| 20260508071155 | 76 | 337 | 0.0 | 1.0 | 0.00 | 0.00 | 0.00 | 29 | 1009.4 |
| 20260508070546 | 75 | 337 | 1.0 | 2.0 | 0.00 | 0.00 | 0.00 | 30 | 1009.3 |
| 20260508065537 | 73 | 337 | 0.0 | 1.0 | 0.00 | 0.00 | 0.00 | 32 | 1009.4 |
| 20260508065130 | 72 | 337 | 0.0 | 1.0 | 0.00 | 0.00 | 0.00 | 33 | 1009.4 |
| 20260508064928 | 72 | 337 | 1.0 | 1.0 | 0.00 | 0.00 | 0.00 | 32 | 1009.3 |
| 20260508064729 | 72 | 337 | 0.0 | 1.0 | 0.00 | 0.00 | 0.00 | 33 | 1009.5 |
| 20260508064523 | 71 | 337 | 1.0 | 1.0 | 0.00 | 0.00 | 0.00 | 33 | 1009.4 |
| 20260508064321 | 71 | 337 | 1.0 | 1.0 | 0.00 | 0.00 | 0.00 | 33 | 1009.5 |
| 20260508063729 | 70 | 337 | 1.0 | 1.0 | 0.00 | 0.00 | 0.00 | 35 | 1009.4 |
| 20260508063718 | 68 | 337 | 0.0 | 0.0 | 0.00 | 0.00 | 0.00 | 34 | 1009.4 |
| 20260508063517 | 69 | 337 | 0.0 | 1.0 | 0.00 | 0.00 | 0.00 | 35 | 1009.4 |
| 20260508063309 | 69 | 337 | 0.0 | 0.0 | 0.00 | 0.00 | 0.00 | 35 | 1009.3 |
| 20260508062905 | 68 | 337 | 0.0 | 0.0 | 0.00 | 0.00 | 0.00 | 34 | 1009.4 |
| 20260508062500 | 67 | 337 | 0.0 | 1.0 | 0.00 | 0.00 | 0.00 | 36 | 1009.4 |
| 20260508062258 | 67 | 337 | 1.0 | 1.0 | 0.00 | 0.00 | 0.00 | 37 | 1009.4 |
| 20260508062108 | 67 | 348 | 0.0 | 1.0 | 0.00 | 0.00 | 0.00 | 38 | 1009.3 |
| 20260508061450 | 65 | 315 | 0.0 | 0.0 | 0.00 | 0.00 | 0.00 | 39 | 1009.4 |
| 20260508061045 | 65 | 315 | 0.0 | 0.0 | 0.00 | 0.00 | 0.00 | 39 | 1009.4 |
| 20260508060842 | 64 | 315 | 0.0 | 0.0 | 0.00 | 0.00 | 0.00 | 39 | 1009.4 |
| 20260508060741 | 63 | 292 | 0.0 | 0.0 | 0.00 | 0.00 | 0.00 | 40 | 1009.2 |
| 20260508060439 | 63 | 292 | 0.0 | 0.0 | 0.00 | 0.00 | 0.00 | 40 | 1009.2 |
| 20260508060235 | 63 | 315 | 0.0 | 0.0 | 0.00 | 0.00 | 0.00 | 41 | 1009.3 |
| 20260508060033 | 62 | 315 | 0.0 | 0.0 | 0.00 | 0.00 | 0.00 | 41 | 1009.2 |
| 20260508055628 | 61 | 315 | 0.0 | 0.0 | 0.00 | 0.00 | 0.00 | 40 | 1009.2 |
| 20260508055224 | 60 | 292 | 0.0 | 0.0 | 0.00 | 0.00 | 0.00 | 39 | 1009.3 |
| 20260508055022 | 60 | 337 | 0.0 | 0.0 | 0.00 | 0.00 | 0.00 | 40 | 1009.3 |
| 20260508054008 | 58 | 337 | 0.0 | 124.0 | 0.00 | 0.00 | 0.00 | 42 | 1009.0 |
| 20260508053905 | 58 | 337 | 124.0 | 124.0 | 0.00 | 0.00 | 0.00 | 42 | 1009.1 |
| 20260508053749 | 58 | 337 | 1.0 | 1.0 | 0.00 | 0.00 | 0.00 | 42 | 1009.1 |
| 20260508053346 | 57 | 337 | 0.0 | 1.0 | 0.00 | 0.00 | 0.00 | 43 | 1009.0 |
| 20260508053143 | 57 | 337 | 0.0 | 1.0 | 0.00 | 0.00 | 0.00 | 43 | 1009.1 |
| 20260508053012 | 57 | 337 | 0.0 | 0.0 | 0.00 | 0.00 | 0.00 | 43 | 1009.1 |
| 20260508052940 | 57 | 337 | 0.0 | 0.0 | 0.00 | 0.00 | 0.00 | 43 | 1009.1 |
| 20260508052247 | 56 | 337 | 1.0 | 1.0 | 0.00 | 0.00 | 0.00 | 43 | 1009.0 |
| 20260508051841 | 55 | 292 | 0.0 | 0.0 | 0.00 | 0.00 | 0.00 | 43 | 1009.0 |
| 20260508051235 | 55 | 292 | 0.0 | 0.0 | 0.00 | 0.00 | 0.00 | 42 | 1009.0 |
| 20260508051032 | 55 | 292 | 0.0 | 0.0 | 0.00 | 0.00 | 0.00 | 42 | 1008.9 |
| 20260508050627 | 54 | 315 | 1.0 | 6.0 | 0.00 | 0.00 | 0.00 | 42 | 1009.0 |
| 20260508050425 | 54 | 270 | 1.0 | 6.0 | 0.00 | 0.00 | 0.00 | 42 | 1008.9 |
| 20260508050225 | 54 | 315 | 6.0 | 6.0 | 0.00 | 0.00 | 0.00 | 42 | 1008.9 |
| 20260508045616 | 54 | 348 | 5.0 | 6.0 | 0.00 | 0.00 | 0.00 | 42 | 1008.9 |
| 20260508045417 | 54 | 315 | 6.0 | 6.0 | 0.00 | 0.00 | 0.00 | 43 | 1008.9 |
| 20260508045212 | 55 | 315 | 5.0 | 5.0 | 0.00 | 0.00 | 0.00 | 43 | 1009.0 |
| 20260508044803 | 55 | 270 | 1.0 | 1.0 | 0.00 | 0.00 | 0.00 | 43 | 1009.0 |
| 20260508044604 | 55 | 315 | 1.0 | 2.0 | 0.00 | 0.00 | 0.00 | 43 | 1009.0 |
| 20260508044400 | 55 | 270 | 1.0 | 2.0 | 0.00 | 0.00 | 0.00 | 43 | 1009.0 |
| 20260508043753 | 55 | 337 | 0.0 | 3.0 | 0.00 | 0.00 | 0.00 | 42 | 1008.8 |
| 20260508043550 | 55 | 0 | 2.0 | 3.0 | 0.00 | 0.00 | 0.00 | 43 | 1008.8 |
| 20260508043348 | 55 | 315 | 1.0 | 2.0 | 0.00 | 0.00 | 0.00 | 43 | 1008.9 |
| 20260508042742 | 55 | 315 | 0.0 | 6.0 | 0.00 | 0.00 | 0.00 | 42 | 1008.8 |
| 20260508042539 | 55 | 315 | 0.0 | 6.0 | 0.00 | 0.00 | 0.00 | 42 | 1008.7 |
| 20260508042135 | 55 | 337 | 4.0 | 6.0 | 0.00 | 0.00 | 0.00 | 42 | 1008.7 |
| 20260508041934 | 55 | 315 | 6.0 | 6.0 | 0.00 | 0.00 | 0.00 | 42 | 1008.7 |
| 20260508041732 | 55 | 0 | 4.0 | 6.0 | 0.00 | 0.00 | 0.00 | 42 | 1008.6 |
| 20260508040923 | 55 | 315 | 1.0 | 4.0 | 0.00 | 0.00 | 0.00 | 42 | 1008.6 |
| 20260508040720 | 55 | 270 | 1.0 | 4.0 | 0.00 | 0.00 | 0.00 | 42 | 1008.7 |
| 20260508040320 | 55 | 0 | 4.0 | 4.0 | 0.00 | 0.00 | 0.00 | 42 | 1008.7 |
| 20260508035909 | 55 | 315 | 3.0 | 4.0 | 0.00 | 0.00 | 0.00 | 43 | 1008.7 |
| 20260508035708 | 55 | 0 | 2.0 | 2.0 | 0.00 | 0.00 | 0.00 | 43 | 1008.7 |
| 20260508035504 | 55 | 337 | 1.0 | 2.0 | 0.00 | 0.00 | 0.00 | 43 | 1008.8 |
| 20260508035306 | 55 | 337 | 2.0 | 2.0 | 0.00 | 0.00 | 0.00 | 43 | 1008.8 |
| 20260508034858 | 55 | 315 | 0.0 | 1.0 | 0.00 | 0.00 | 0.00 | 43 | 1008.8 |
| 20260508034454 | 55 | 315 | 1.0 | 1.0 | 0.00 | 0.00 | 0.00 | 42 | 1008.8 |
| 20260508034051 | 55 | 315 | 0.0 | 1.0 | 0.00 | 0.00 | 0.00 | 42 | 1008.8 |
| 20260508033848 | 55 | 292 | 0.0 | 3.0 | 0.00 | 0.00 | 0.00 | 42 | 1008.8 |
| 20260508033651 | 55 | 337 | 2.0 | 3.0 | 0.00 | 0.00 | 0.00 | 42 | 1008.9 |
| 20260508033242 | 55 | 315 | 1.0 | 3.0 | 0.00 | 0.00 | 0.00 | 42 | 1008.8 |
| 20260508033040 | 55 | 270 | 2.0 | 4.0 | 0.00 | 0.00 | 0.00 | 42 | 1008.9 |
| 20260508032838 | 55 | 270 | 3.0 | 6.0 | 0.00 | 0.00 | 0.00 | 41 | 1008.9 |
| 20260508032633 | 55 | 315 | 4.0 | 6.0 | 0.00 | 0.00 | 0.00 | 42 | 1008.9 |
| 20260508032433 | 55 | 0 | 5.0 | 6.0 | 0.00 | 0.00 | 0.00 | 42 | 1009.0 |
| 20260508032231 | 55 | 337 | 5.0 | 5.0 | 0.00 | 0.00 | 0.00 | 42 | 1008.9 |
| 20260508032029 | 55 | 337 | 3.0 | 5.0 | 0.00 | 0.00 | 0.00 | 42 | 1008.9 |
| 20260508031454 | 55 | 0 | 4.0 | 4.0 | 0.00 | 0.00 | 0.00 | 43 | 1009.0 |
| 20260508031419 | 55 | 0 | 4.0 | 4.0 | 0.00 | 0.00 | 0.00 | 43 | 1009.0 |
| 20260508031218 | 55 | 348 | 2.0 | 3.0 | 0.00 | 0.00 | 0.00 | 43 | 1008.9 |
| 20260508030611 | 55 | 0 | 2.0 | 2.0 | 0.00 | 0.00 | 0.00 | 44 | 1008.9 |
| 20260508030512 | 55 | 348 | 2.0 | 2.0 | 0.00 | 0.00 | 0.00 | 44 | 1008.8 |
| 20260508030411 | 55 | 348 | 2.0 | 2.0 | 0.00 | 0.00 | 0.00 | 44 | 1008.8 |
| 20260508030005 | 55 | 337 | 2.0 | 3.0 | 0.00 | 0.00 | 0.00 | 45 | 1008.8 |
| 20260508025802 | 55 | 315 | 1.0 | 4.0 | 0.00 | 0.00 | 0.00 | 45 | 1008.9 |
| 20260508025359 | 55 | 0 | 3.0 | 4.0 | 0.00 | 0.00 | 0.00 | 44 | 1008.9 |
| 20260508025156 | 55 | 315 | 3.0 | 4.0 | 0.00 | 0.00 | 0.00 | 44 | 1008.8 |
| 20260508024955 | 55 | 0 | 2.0 | 3.0 | 0.00 | 0.00 | 0.00 | 45 | 1008.8 |
| 20260508024751 | 55 | 0 | 2.0 | 2.0 | 0.00 | 0.00 | 0.00 | 45 | 1009.0 |
| 20260508024548 | 55 | 0 | 1.0 | 1.0 | 0.00 | 0.00 | 0.00 | 44 | 1008.9 |
| 20260508023942 | 55 | 315 | 1.0 | 1.0 | 0.00 | 0.00 | 0.00 | 44 | 1009.0 |
| 20260508023740 | 55 | 0 | 1.0 | 5.0 | 0.00 | 0.00 | 0.00 | 45 | 1009.0 |
| 20260508023535 | 55 | 315 | 5.0 | 6.0 | 0.00 | 0.00 | 0.00 | 44 | 1009.0 |
| 20260508023336 | 55 | 315 | 5.0 | 6.0 | 0.00 | 0.00 | 0.00 | 44 | 1009.0 |
| 20260508023134 | 55 | 315 | 4.0 | 5.0 | 0.00 | 0.00 | 0.00 | 44 | 1009.0 |
| 20260508022933 | 55 | 315 | 4.0 | 5.0 | 0.00 | 0.00 | 0.00 | 44 | 1008.9 |
| 20260508022526 | 55 | 315 | 4.0 | 4.0 | 0.00 | 0.00 | 0.00 | 43 | 1009.0 |
| 20260508021921 | 56 | 315 | 4.0 | 4.0 | 0.00 | 0.00 | 0.00 | 45 | 1009.0 |
| 20260508021716 | 55 | 0 | 0.0 | 1.0 | 0.00 | 0.00 | 0.00 | 45 | 1008.8 |
| 20260508021311 | 56 | 0 | 0.0 | 1.0 | 0.00 | 0.00 | 0.00 | 44 | 1008.9 |
| 20260508020908 | 56 | 0 | 1.0 | 1.0 | 0.00 | 0.00 | 0.00 | 44 | 1008.9 |
| 20260508020705 | 56 | 0 | 1.0 | 3.0 | 0.00 | 0.00 | 0.00 | 44 | 1009.0 |
| 20260508020548 | 56 | 0 | 1.0 | 3.0 | 0.00 | 0.00 | 0.00 | 44 | 1009.0 |
| 20260508020505 | 56 | 0 | 1.0 | 3.0 | 0.00 | 0.00 | 0.00 | 44 | 1009.0 |
| 20260508015932 | 56 | 315 | 1.0 | 2.0 | 0.00 | 0.00 | 0.00 | 44 | 1009.1 |
| 20260508015859 | 56 | 315 | 1.0 | 2.0 | 0.00 | 0.00 | 0.00 | 44 | 1009.1 |
| 20260508015453 | 56 | 315 | 0.0 | 1.0 | 0.00 | 0.00 | 0.00 | 43 | 1009.0 |
| 20260508015046 | 56 | 270 | 0.0 | 2.0 | 0.00 | 0.00 | 0.00 | 43 | 1009.0 |
| 20260508014845 | 56 | 270 | 2.0 | 2.0 | 0.00 | 0.00 | 0.00 | 43 | 1009.0 |
| 20260508014645 | 56 | 270 | 1.0 | 1.0 | 0.00 | 0.00 | 0.00 | 43 | 1009.0 |
| 20260508014439 | 56 | 270 | 0.0 | 1.0 | 0.00 | 0.00 | 0.00 | 42 | 1009.1 |
| 20260508014237 | 56 | 270 | 1.0 | 1.0 | 0.00 | 0.00 | 0.00 | 43 | 1009.1 |
| 20260508013832 | 56 | 315 | 0.0 | 0.0 | 0.00 | 0.00 | 0.00 | 42 | 1009.1 |
| 20260508013633 | 56 | 326 | 0.0 | 0.0 | 0.00 | 0.00 | 0.00 | 41 | 1009.0 |
| 20260508013427 | 56 | 270 | 0.0 | 0.0 | 0.00 | 0.00 | 0.00 | 41 | 1009.0 |
| 20260508013024 | 56 | 315 | 0.0 | 0.0 | 0.00 | 0.00 | 0.00 | 41 | 1009.0 |
| 20260508012618 | 56 | 315 | 0.0 | 0.0 | 0.00 | 0.00 | 0.00 | 40 | 1009.0 |
| 20260508012219 | 56 | 337 | 0.0 | 0.0 | 0.00 | 0.00 | 0.00 | 40 | 1009.0 |
| 20260508011815 | 56 | 337 | 0.0 | 2.0 | 0.00 | 0.00 | 0.00 | 39 | 1009.0 |
| 20260508011404 | 56 | 0 | 1.0 | 3.0 | 0.00 | 0.00 | 0.00 | 39 | 1009.0 |
| 20260508011206 | 56 | 315 | 0.0 | 2.0 | 0.00 | 0.00 | 0.00 | 39 | 1009.0 |
| 20260508011002 | 56 | 315 | 1.0 | 2.0 | 0.00 | 0.00 | 0.00 | 39 | 1009.0 |
| 20260508010758 | 56 | 315 | 1.0 | 3.0 | 0.00 | 0.00 | 0.00 | 38 | 1009.0 |
| 20260508010557 | 56 | 315 | 2.0 | 3.0 | 0.00 | 0.00 | 0.00 | 38 | 1009.2 |
| 20260508010353 | 56 | 315 | 2.0 | 3.0 | 0.00 | 0.00 | 0.00 | 38 | 1009.1 |
| 20260508010200 | 56 | 337 | 0.0 | 1.0 | 0.00 | 0.00 | 0.00 | 38 | 1009.1 |
| 20260508005950 | 56 | 0 | 1.0 | 1.0 | 0.00 | 0.00 | 0.00 | 38 | 1009.1 |
| 20260508005747 | 56 | 337 | 1.0 | 1.0 | 0.00 | 0.00 | 0.00 | 38 | 1009.0 |
| 20260508005545 | 56 | 337 | 1.0 | 2.0 | 0.00 | 0.00 | 0.00 | 38 | 1009.2 |
| 20260508004736 | 56 | 270 | 2.0 | 2.0 | 0.00 | 0.00 | 0.00 | 37 | 1009.2 |
| 20260508004535 | 56 | 270 | 2.0 | 2.0 | 0.00 | 0.00 | 0.00 | 37 | 1009.0 |
| 20260508004330 | 56 | 315 | 1.0 | 1.0 | 0.00 | 0.00 | 0.00 | 36 | 1009.0 |
| 20260508003724 | 56 | 270 | 1.0 | 2.0 | 0.00 | 0.00 | 0.00 | 36 | 1009.2 |
| 20260508003522 | 56 | 270 | 1.0 | 2.0 | 0.00 | 0.00 | 0.00 | 37 | 1009.2 |
| 20260508003122 | 56 | 315 | 2.0 | 4.0 | 0.00 | 0.00 | 0.00 | 36 | 1009.3 |
| 20260508002919 | 56 | 315 | 3.0 | 5.0 | 0.00 | 0.00 | 0.00 | 36 | 1009.2 |
| 20260508002717 | 56 | 315 | 4.0 | 5.0 | 0.00 | 0.00 | 0.00 | 36 | 1009.2 |
| 20260508002510 | 56 | 315 | 4.0 | 5.0 | 0.00 | 0.00 | 0.00 | 37 | 1009.2 |
| 20260508002106 | 56 | 315 | 7.0 | 7.0 | 0.00 | 0.00 | 0.00 | 36 | 1009.5 |
| 20260508001702 | 56 | 315 | 6.0 | 6.0 | 0.00 | 0.00 | 0.00 | 36 | 1009.4 |
| 20260508001500 | 56 | 0 | 3.0 | 4.0 | 0.00 | 0.00 | 0.00 | 36 | 1009.4 |
| 20260508001055 | 56 | 0 | 3.0 | 4.0 | 0.00 | 0.00 | 0.00 | 37 | 1009.5 |
| 20260508000854 | 56 | 0 | 4.0 | 5.0 | 0.00 | 0.00 | 0.00 | 37 | 1009.5 |
| 20260508000651 | 56 | 0 | 4.0 | 5.0 | 0.00 | 0.00 | 0.00 | 37 | 1009.4 |
| 20260508000450 | 56 | 0 | 4.0 | 5.0 | 0.00 | 0.00 | 0.00 | 38 | 1009.5 |
| 20260507235438 | 56 | 0 | 4.0 | 5.0 | 0.00 | 0.00 | 0.00 | 38 | 1009.6 |
| 20260507235234 | 56 | 0 | 3.0 | 3.0 | 0.00 | 0.00 | 0.00 | 38 | 1009.6 |
| 20260507235031 | 56 | 315 | 3.0 | 3.0 | 0.00 | 0.00 | 0.00 | 38 | 1009.7 |
| 20260507234830 | 56 | 270 | 2.0 | 2.0 | 0.00 | 0.00 | 0.00 | 38 | 1009.7 |
| 20260507234635 | 56 | 270 | 2.0 | 2.0 | 0.00 | 0.00 | 0.00 | 39 | 1009.8 |
| 20260507234425 | 56 | 270 | 0.0 | 3.0 | 0.00 | 0.00 | 0.00 | 38 | 1009.7 |
| 20260507234225 | 56 | 270 | 2.0 | 5.0 | 0.00 | 0.00 | 0.00 | 39 | 1009.7 |
| 20260507234022 | 56 | 315 | 3.0 | 6.0 | 0.00 | 0.00 | 0.00 | 38 | 1009.8 |
| 20260507233822 | 56 | 315 | 4.0 | 6.0 | 0.00 | 0.00 | 0.00 | 39 | 1009.8 |
| 20260507233009 | 57 | 315 | 1.0 | 3.0 | 0.00 | 0.00 | 0.00 | 40 | 1009.9 |
| 20260507231635 | 57 | 315 | 6.0 | 7.0 | 0.00 | 0.00 | 0.00 | 40 | 1009.9 |
| 20260507231556 | 57 | 315 | 6.0 | 7.0 | 0.00 | 0.00 | 0.00 | 40 | 1009.9 |
| 20260507230749 | 57 | 326 | 7.0 | 8.0 | 0.00 | 0.00 | 0.00 | 41 | 1010.0 |
| 20260507230340 | 57 | 337 | 5.0 | 7.0 | 0.00 | 0.00 | 0.00 | 41 | 1010.0 |
| 20260507225733 | 57 | 315 | 3.0 | 5.0 | 0.00 | 0.00 | 0.00 | 41 | 1010.0 |
| 20260507225531 | 57 | 337 | 3.0 | 5.0 | 0.00 | 0.00 | 0.00 | 41 | 1010.0 |
| 20260507225329 | 57 | 326 | 4.0 | 5.0 | 0.00 | 0.00 | 0.00 | 41 | 1010.0 |
| 20260507224924 | 57 | 337 | 4.0 | 5.0 | 0.00 | 0.00 | 0.00 | 40 | 1010.0 |
| 20260507224519 | 58 | 337 | 3.0 | 4.0 | 0.00 | 0.00 | 0.00 | 40 | 1010.1 |
| 20260507223912 | 58 | 315 | 4.0 | 5.0 | 0.00 | 0.00 | 0.00 | 39 | 1010.1 |
| 20260507223710 | 58 | 315 | 4.0 | 5.0 | 0.00 | 0.00 | 0.00 | 40 | 1010.0 |
| 20260507223545 | 58 | 315 | 3.0 | 5.0 | 0.00 | 0.00 | 0.00 | 40 | 1010.1 |
| 20260507223508 | 58 | 315 | 3.0 | 5.0 | 0.00 | 0.00 | 0.00 | 40 | 1010.1 |
| 20260507223306 | 58 | 315 | 4.0 | 5.0 | 0.00 | 0.00 | 0.00 | 40 | 1010.1 |
| 20260507222901 | 58 | 315 | 4.0 | 5.0 | 0.00 | 0.00 | 0.00 | 39 | 1010.1 |
| 20260507222540 | 58 | 337 | 2.0 | 3.0 | 0.00 | 0.00 | 0.00 | 40 | 1010.0 |
| 20260507222457 | 58 | 337 | 2.0 | 3.0 | 0.00 | 0.00 | 0.00 | 40 | 1010.0 |
| 20260507222254 | 58 | 337 | 2.0 | 2.0 | 0.00 | 0.00 | 0.00 | 39 | 1010.1 |
| 20260507221849 | 58 | 0 | 1.0 | 3.0 | 0.00 | 0.00 | 0.00 | 39 | 1010.1 |
| 20260507221647 | 58 | 337 | 2.0 | 4.0 | 0.00 | 0.00 | 0.00 | 39 | 1010.1 |
| 20260507221244 | 58 | 348 | 2.0 | 4.0 | 0.00 | 0.00 | 0.00 | 39 | 1010.1 |
| 20260507220910 | 59 | 0 | 2.0 | 2.0 | 0.00 | 0.00 | 0.00 | 39 | 1010.1 |
| 20260507220838 | 59 | 0 | 2.0 | 2.0 | 0.00 | 0.00 | 0.00 | 39 | 1010.1 |
| 20260507220231 | 59 | 0 | 2.0 | 4.0 | 0.00 | 0.00 | 0.00 | 39 | 1010.1 |
| 20260507220029 | 59 | 315 | 3.0 | 4.0 | 0.00 | 0.00 | 0.00 | 39 | 1010.1 |
| 20260507215912 | 59 | 315 | 2.0 | 2.0 | 0.00 | 0.00 | 0.00 | 40 | 1010.0 |
| 20260507215827 | 59 | 315 | 2.0 | 2.0 | 0.00 | 0.00 | 0.00 | 40 | 1010.0 |
| 20260507215423 | 59 | 315 | 4.0 | 4.0 | 0.00 | 0.00 | 0.00 | 40 | 1010.1 |
| 20260507215220 | 59 | 315 | 2.0 | 2.0 | 0.00 | 0.00 | 0.00 | 40 | 1010.1 |
| 20260507215018 | 59 | 270 | 0.0 | 1.0 | 0.00 | 0.00 | 0.00 | 40 | 1010.1 |
| 20260507214855 | 59 | 270 | 1.0 | 3.0 | 0.00 | 0.00 | 0.00 | 40 | 1010.1 |
| 20260507214815 | 59 | 270 | 1.0 | 3.0 | 0.00 | 0.00 | 0.00 | 40 | 1010.1 |
| 20260507214617 | 59 | 270 | 2.0 | 3.0 | 0.00 | 0.00 | 0.00 | 40 | 1010.0 |
| 20260507214614 | 59 | 270 | 2.0 | 3.0 | 0.00 | 0.00 | 0.00 | 40 | 1010.0 |
| 20260507214412 | 60 | 270 | 2.0 | 2.0 | 0.00 | 0.00 | 0.00 | 39 | 1010.0 |
| 20260507214209 | 60 | 270 | 0.0 | 1.0 | 0.00 | 0.00 | 0.00 | 39 | 1010.0 |
| 20260507213400 | 60 | 337 | 3.0 | 3.0 | 0.00 | 0.00 | 0.00 | 40 | 1010.0 |
| 20260507212955 | 60 | 337 | 0.0 | 1.0 | 0.00 | 0.00 | 0.00 | 39 | 1009.8 |
| 20260507212756 | 60 | 292 | 0.0 | 0.0 | 0.00 | 0.00 | 0.00 | 39 | 1009.9 |
| 20260507212349 | 60 | 337 | 0.0 | 1.0 | 0.00 | 0.00 | 0.00 | 39 | 1009.8 |
| 20260507212146 | 60 | 337 | 0.0 | 1.0 | 0.00 | 0.00 | 0.00 | 38 | 1009.8 |
| 20260507210939 | 61 | 337 | 3.0 | 4.0 | 0.00 | 0.00 | 0.00 | 38 | 1009.9 |
| 20260507210730 | 61 | 337 | 2.0 | 4.0 | 0.00 | 0.00 | 0.00 | 38 | 1009.9 |
| 20260507210528 | 61 | 337 | 3.0 | 4.0 | 0.00 | 0.00 | 0.00 | 38 | 1010.0 |
| 20260507210326 | 61 | 337 | 2.0 | 3.0 | 0.00 | 0.00 | 0.00 | 38 | 1009.9 |
| 20260507205923 | 61 | 337 | 2.0 | 2.0 | 0.00 | 0.00 | 0.00 | 38 | 1010.0 |
| 20260507205313 | 61 | 337 | 1.0 | 2.0 | 0.00 | 0.00 | 0.00 | 36 | 1009.9 |
| 20260507205111 | 61 | 337 | 1.0 | 3.0 | 0.00 | 0.00 | 0.00 | 37 | 1009.9 |
| 20260507204912 | 61 | 315 | 1.0 | 4.0 | 0.00 | 0.00 | 0.00 | 36 | 1009.9 |
| 20260507204709 | 62 | 315 | 2.0 | 4.0 | 0.00 | 0.00 | 0.00 | 37 | 1009.9 |
| 20260507204302 | 62 | 337 | 0.0 | 1.0 | 0.00 | 0.00 | 0.00 | 38 | 1010.0 |
| 20260507204135 | 62 | 337 | 0.0 | 2.0 | 0.00 | 0.00 | 0.00 | 37 | 1010.1 |
| 20260507204059 | 62 | 337 | 0.0 | 2.0 | 0.00 | 0.00 | 0.00 | 37 | 1010.1 |
| 20260507203857 | 62 | 337 | 1.0 | 2.0 | 0.00 | 0.00 | 0.00 | 37 | 1009.9 |
| 20260507203655 | 62 | 337 | 2.0 | 2.0 | 0.00 | 0.00 | 0.00 | 37 | 1010.1 |
| 20260507203453 | 62 | 337 | 2.0 | 2.0 | 0.00 | 0.00 | 0.00 | 37 | 1010.0 |
| 20260507203251 | 62 | 337 | 1.0 | 3.0 | 0.00 | 0.00 | 0.00 | 37 | 1010.0 |
| 20260507202845 | 62 | 337 | 2.0 | 3.0 | 0.00 | 0.00 | 0.00 | 37 | 1010.0 |
| 20260507202441 | 62 | 337 | 3.0 | 3.0 | 0.00 | 0.00 | 0.00 | 37 | 1009.9 |
| 20260507202239 | 62 | 337 | 2.0 | 2.0 | 0.00 | 0.00 | 0.00 | 38 | 1010.1 |
| 20260507202037 | 62 | 337 | 1.0 | 2.0 | 0.00 | 0.00 | 0.00 | 38 | 1010.0 |
| 20260507201834 | 62 | 337 | 1.0 | 2.0 | 0.00 | 0.00 | 0.00 | 38 | 1010.0 |
| 20260507201430 | 62 | 337 | 1.0 | 2.0 | 0.00 | 0.00 | 0.00 | 38 | 1009.9 |
| 20260507201228 | 63 | 337 | 2.0 | 2.0 | 0.00 | 0.00 | 0.00 | 36 | 1009.9 |
| 20260507201025 | 63 | 337 | 1.0 | 1.0 | 0.00 | 0.00 | 0.00 | 36 | 1009.9 |
| 20260507200823 | 63 | 337 | 0.0 | 2.0 | 0.00 | 0.00 | 0.00 | 35 | 1009.9 |
| 20260507200418 | 63 | 337 | 2.0 | 3.0 | 0.00 | 0.00 | 0.00 | 36 | 1010.0 |
| 20260507200216 | 63 | 337 | 3.0 | 3.0 | 0.00 | 0.00 | 0.00 | 35 | 1009.9 |
| 20260507195811 | 63 | 337 | 1.0 | 3.0 | 0.00 | 0.00 | 0.00 | 35 | 1009.9 |
| 20260507195615 | 63 | 337 | 2.0 | 3.0 | 0.00 | 0.00 | 0.00 | 35 | 1009.8 |
| 20260507195408 | 63 | 337 | 2.0 | 2.0 | 0.00 | 0.00 | 0.00 | 35 | 1009.9 |
| 20260507195205 | 63 | 337 | 2.0 | 2.0 | 0.00 | 0.00 | 0.00 | 35 | 1009.9 |
| 20260507195003 | 63 | 337 | 1.0 | 1.0 | 0.00 | 0.00 | 0.00 | 35 | 1009.9 |
| 20260507194356 | 63 | 337 | 1.0 | 2.0 | 0.00 | 0.00 | 0.00 | 34 | 1009.8 |
| 20260507193951 | 63 | 337 | 2.0 | 2.0 | 0.00 | 0.00 | 0.00 | 33 | 1009.7 |
| 20260507193344 | 64 | 337 | 2.0 | 2.0 | 0.00 | 0.00 | 0.00 | 33 | 1009.7 |
| 20260507193144 | 64 | 337 | 2.0 | 2.0 | 0.00 | 0.00 | 0.00 | 33 | 1009.7 |
| 20260507192940 | 64 | 337 | 0.0 | 1.0 | 0.00 | 0.00 | 0.00 | 33 | 1009.7 |
| 20260507192737 | 64 | 337 | 1.0 | 1.0 | 0.00 | 0.00 | 0.00 | 33 | 1009.7 |
| 20260507191929 | 65 | 337 | 2.0 | 3.0 | 0.00 | 0.00 | 0.00 | 32 | 1009.7 |
| 20260507191524 | 65 | 337 | 3.0 | 3.0 | 0.00 | 0.00 | 0.00 | 32 | 1009.6 |
| 20260507191322 | 65 | 337 | 3.0 | 3.0 | 0.00 | 0.00 | 0.00 | 32 | 1009.5 |
| 20260507190917 | 65 | 337 | 3.0 | 4.0 | 0.00 | 0.00 | 0.00 | 32 | 1009.5 |
| 20260507190512 | 65 | 337 | 2.0 | 4.0 | 0.00 | 0.00 | 0.00 | 31 | 1009.6 |
| 20260507190310 | 65 | 337 | 2.0 | 4.0 | 0.00 | 0.00 | 0.00 | 31 | 1009.5 |
| 20260507190109 | 66 | 337 | 2.0 | 4.0 | 0.00 | 0.00 | 0.00 | 31 | 1009.6 |
| 20260507185501 | 66 | 337 | 4.0 | 4.0 | 0.00 | 0.00 | 0.00 | 30 | 1009.5 |
| 20260507185259 | 66 | 337 | 4.0 | 4.0 | 0.00 | 0.00 | 0.00 | 30 | 1009.6 |
| 20260507185057 | 67 | 337 | 4.0 | 4.0 | 0.00 | 0.00 | 0.00 | 31 | 1009.6 |
| 20260507184855 | 67 | 337 | 4.0 | 4.0 | 0.00 | 0.00 | 0.00 | 30 | 1009.6 |
| 20260507184450 | 67 | 337 | 2.0 | 3.0 | 0.00 | 0.00 | 0.00 | 30 | 1009.6 |
| 20260507184248 | 67 | 337 | 2.0 | 3.0 | 0.00 | 0.00 | 0.00 | 29 | 1009.6 |
| 20260507184046 | 67 | 337 | 2.0 | 3.0 | 0.00 | 0.00 | 0.00 | 29 | 1009.5 |
| 20260507183843 | 68 | 337 | 1.0 | 3.0 | 0.00 | 0.00 | 0.00 | 30 | 1009.5 |
| 20260507183640 | 68 | 337 | 3.0 | 3.0 | 0.00 | 0.00 | 0.00 | 28 | 1009.5 |
| 20260507183236 | 68 | 337 | 2.0 | 3.0 | 0.00 | 0.00 | 0.00 | 28 | 1009.4 |
| 20260507183034 | 68 | 337 | 2.0 | 3.0 | 0.00 | 0.00 | 0.00 | 29 | 1009.5 |
| 20260507182832 | 69 | 337 | 1.0 | 3.0 | 0.00 | 0.00 | 0.00 | 28 | 1009.4 |
| 20260507182629 | 69 | 337 | 3.0 | 3.0 | 0.00 | 0.00 | 0.00 | 27 | 1009.5 |
| 20260507182427 | 69 | 337 | 2.0 | 3.0 | 0.00 | 0.00 | 0.00 | 27 | 1009.5 |
| 20260507182225 | 69 | 337 | 2.0 | 3.0 | 0.00 | 0.00 | 0.00 | 27 | 1009.5 |
| 20260507182023 | 69 | 337 | 3.0 | 3.0 | 0.00 | 0.00 | 0.00 | 27 | 1009.4 |
| 20260507181821 | 69 | 337 | 1.0 | 2.0 | 0.00 | 0.00 | 0.00 | 27 | 1009.5 |
| 20260507181416 | 69 | 337 | 1.0 | 2.0 | 0.00 | 0.00 | 0.00 | 26 | 1009.4 |
| 20260507180809 | 69 | 337 | 1.0 | 2.0 | 0.00 | 0.00 | 0.00 | 25 | 1009.4 |
| 20260507180202 | 70 | 337 | 0.0 | 2.0 | 0.00 | 0.00 | 0.00 | 23 | 1009.4 |
| 20260507180000 | 70 | 337 | 1.0 | 3.0 | 0.00 | 0.00 | 0.00 | 23 | 1009.4 |
| 20260507175758 | 70 | 337 | 2.0 | 3.0 | 0.00 | 0.00 | 0.00 | 23 | 1009.4 |
| 20260507175555 | 70 | 337 | 1.0 | 3.0 | 0.00 | 0.00 | 0.00 | 22 | 1009.4 |
| 20260507175151 | 70 | 292 | 3.0 | 3.0 | 0.00 | 0.00 | 0.00 | 23 | 1009.4 |
| 20260507174140 | 71 | 337 | 4.0 | 4.0 | 0.00 | 0.00 | 0.00 | 22 | 1009.5 |
| 20260507173735 | 71 | 315 | 2.0 | 5.0 | 0.00 | 0.00 | 0.00 | 22 | 1009.4 |
| 20260507173533 | 71 | 315 | 3.0 | 5.0 | 0.00 | 0.00 | 0.00 | 22 | 1009.5 |
| 20260507173408 | 71 | 292 | 3.0 | 3.0 | 0.00 | 0.00 | 0.00 | 22 | 1009.5 |
| 20260507173330 | 71 | 292 | 3.0 | 3.0 | 0.00 | 0.00 | 0.00 | 22 | 1009.5 |
| 20260507172924 | 72 | 326 | 3.0 | 7.0 | 0.00 | 0.00 | 0.00 | 22 | 1009.5 |
| 20260507172721 | 72 | 326 | 4.0 | 7.0 | 0.00 | 0.00 | 0.00 | 22 | 1009.4 |
| 20260507172518 | 72 | 337 | 6.0 | 6.0 | 0.00 | 0.00 | 0.00 | 21 | 1009.5 |
| 20260507172316 | 72 | 337 | 3.0 | 5.0 | 0.00 | 0.00 | 0.00 | 21 | 1009.4 |
| 20260507171709 | 73 | 315 | 5.0 | 7.0 | 0.00 | 0.00 | 0.00 | 21 | 1009.3 |
| 20260507171507 | 74 | 315 | 5.0 | 7.0 | 0.00 | 0.00 | 0.00 | 21 | 1009.2 |
| 20260507171305 | 74 | 315 | 6.0 | 7.0 | 0.00 | 0.00 | 0.00 | 20 | 1009.2 |
| 20260507171102 | 74 | 326 | 5.0 | 7.0 | 0.00 | 0.00 | 0.00 | 21 | 1009.3 |
| 20260507170900 | 74 | 0 | 5.0 | 7.0 | 0.00 | 0.00 | 0.00 | 20 | 1009.3 |
| 20260507170455 | 75 | 315 | 4.0 | 5.0 | 0.00 | 0.00 | 0.00 | 22 | 1009.3 |
| 20260507170253 | 75 | 315 | 4.0 | 5.0 | 0.00 | 0.00 | 0.00 | 22 | 1009.2 |
| 20260507170051 | 75 | 303 | 5.0 | 5.0 | 0.00 | 0.00 | 0.00 | 22 | 1009.3 |
| 20260507165849 | 75 | 303 | 1.0 | 5.0 | 0.00 | 0.00 | 0.00 | 21 | 1009.3 |
| 20260507165647 | 75 | 337 | 3.0 | 7.0 | 0.00 | 0.00 | 0.00 | 21 | 1009.2 |
| 20260507165444 | 75 | 315 | 4.0 | 8.0 | 0.00 | 0.00 | 0.00 | 21 | 1009.3 |
| 20260507165242 | 75 | 315 | 6.0 | 8.0 | 0.00 | 0.00 | 0.00 | 21 | 1009.3 |
| 20260507164838 | 76 | 326 | 7.0 | 8.0 | 0.00 | 0.00 | 0.00 | 21 | 1009.3 |
| 20260507164635 | 75 | 315 | 4.0 | 8.0 | 0.00 | 0.00 | 0.00 | 22 | 1009.2 |
| 20260507164231 | 75 | 337 | 4.0 | 7.0 | 0.00 | 0.00 | 0.00 | 23 | 1009.2 |
| 20260507163826 | 74 | 315 | 3.0 | 7.0 | 0.00 | 0.00 | 0.00 | 23 | 1009.3 |
| 20260507163624 | 74 | 337 | 2.0 | 4.0 | 0.00 | 0.00 | 0.00 | 23 | 1009.3 |
| 20260507163421 | 74 | 337 | 3.0 | 7.0 | 0.00 | 0.00 | 0.00 | 23 | 1009.2 |
| 20260507163219 | 73 | 337 | 4.0 | 7.0 | 0.00 | 0.00 | 0.00 | 23 | 1009.3 |
| 20260507162815 | 73 | 337 | 4.0 | 5.0 | 0.00 | 0.00 | 0.00 | 24 | 1009.3 |
| 20260507162410 | 72 | 337 | 4.0 | 7.0 | 0.00 | 0.00 | 0.00 | 24 | 1009.1 |
| 20260507162208 | 72 | 337 | 2.0 | 8.0 | 0.00 | 0.00 | 0.00 | 23 | 1009.1 |
| 20260507162006 | 72 | 337 | 4.0 | 8.0 | 0.00 | 0.00 | 0.00 | 23 | 1009.2 |
| 20260507161804 | 72 | 315 | 2.0 | 10.0 | 0.00 | 0.00 | 0.00 | 23 | 1009.1 |
| 20260507161157 | 72 | 326 | 5.0 | 10.0 | 0.00 | 0.00 | 0.00 | 25 | 1009.2 |
| 20260507160954 | 72 | 315 | 8.0 | 10.0 | 0.00 | 0.00 | 0.00 | 24 | 1009.1 |
| 20260507160752 | 72 | 315 | 7.0 | 7.0 | 0.00 | 0.00 | 0.00 | 24 | 1009.2 |
| 20260507160146 | 72 | 315 | 7.0 | 10.0 | 0.00 | 0.00 | 0.00 | 25 | 1009.2 |
| 20260507155944 | 72 | 315 | 8.0 | 10.0 | 0.00 | 0.00 | 0.00 | 24 | 1009.2 |
| 20260507155743 | 72 | 292 | 7.0 | 7.0 | 0.00 | 0.00 | 0.00 | 25 | 1009.2 |
| 20260507155337 | 72 | 315 | 6.0 | 6.0 | 0.00 | 0.00 | 0.00 | 25 | 1009.2 |
| 20260507154731 | 72 | 292 | 2.0 | 5.0 | 0.00 | 0.00 | 0.00 | 25 | 1009.2 |
| 20260507154532 | 72 | 303 | 3.0 | 5.0 | 0.00 | 0.00 | 0.00 | 25 | 1009.2 |
| 20260507154125 | 72 | 337 | 2.0 | 6.0 | 0.00 | 0.00 | 0.00 | 24 | 1009.2 |
| 20260507153922 | 72 | 315 | 4.0 | 6.0 | 0.00 | 0.00 | 0.00 | 25 | 1009.2 |
| 20260507153720 | 72 | 292 | 6.0 | 6.0 | 0.00 | 0.00 | 0.00 | 24 | 1009.3 |
| 20260507153314 | 72 | 292 | 4.0 | 6.0 | 0.00 | 0.00 | 0.00 | 25 | 1009.3 |
| 20260507153113 | 72 | 292 | 4.0 | 6.0 | 0.00 | 0.00 | 0.00 | 25 | 1009.3 |
| 20260507152306 | 71 | 337 | 1.0 | 8.0 | 0.00 | 0.00 | 0.00 | 25 | 1009.3 |
| 20260507151657 | 71 | 315 | 4.0 | 9.0 | 0.00 | 0.00 | 0.00 | 25 | 1009.5 |
| 20260507151252 | 72 | 303 | 8.0 | 10.0 | 0.00 | 0.00 | 0.00 | 23 | 1009.3 |
| 20260507151050 | 72 | 315 | 10.0 | 10.0 | 0.00 | 0.00 | 0.00 | 23 | 1009.3 |
| 20260507150646 | 72 | 315 | 9.0 | 10.0 | 0.00 | 0.00 | 0.00 | 23 | 1009.4 |
| 20260507150443 | 72 | 315 | 4.0 | 6.0 | 0.00 | 0.00 | 0.00 | 23 | 1009.3 |
| 20260507145432 | 73 | 315 | 6.0 | 10.0 | 0.00 | 0.00 | 0.00 | 23 | 1009.4 |
| 20260507145229 | 73 | 303 | 10.0 | 11.0 | 0.00 | 0.00 | 0.00 | 23 | 1009.6 |
| 20260507144825 | 72 | 315 | 10.0 | 12.0 | 0.00 | 0.00 | 0.00 | 25 | 1009.6 |
| 20260507144420 | 72 | 315 | 12.0 | 12.0 | 0.00 | 0.00 | 0.00 | 25 | 1009.5 |
| 20260507144344 | 72 | 315 | 8.0 | 11.0 | 0.00 | 0.00 | 0.00 | 24 | 1009.5 |
| 20260507144218 | 72 | 315 | 8.0 | 11.0 | 0.00 | 0.00 | 0.00 | 24 | 1009.5 |
| 20260507144015 | 72 | 292 | 6.0 | 8.0 | 0.00 | 0.00 | 0.00 | 24 | 1009.4 |
| 20260507143813 | 72 | 292 | 8.0 | 13.0 | 0.00 | 0.00 | 0.00 | 25 | 1009.5 |
| 20260507143409 | 72 | 315 | 7.0 | 12.0 | 0.00 | 0.00 | 0.00 | 24 | 1009.6 |
| 20260507143303 | 72 | 303 | 8.0 | 11.0 | 0.00 | 0.00 | 0.00 | 23 | 1009.5 |
| 20260507143206 | 72 | 303 | 8.0 | 11.0 | 0.00 | 0.00 | 0.00 | 23 | 1009.5 |
| 20260507143004 | 72 | 315 | 10.0 | 12.0 | 0.00 | 0.00 | 0.00 | 25 | 1009.5 |
| 20260507142802 | 72 | 315 | 9.0 | 13.0 | 0.00 | 0.00 | 0.00 | 24 | 1009.6 |
| 20260507142358 | 73 | 292 | 13.0 | 13.0 | 0.00 | 0.00 | 0.00 | 24 | 1009.6 |
| 20260507141954 | 73 | 315 | 9.0 | 12.0 | 0.00 | 0.00 | 0.00 | 24 | 1009.7 |
| 20260507141751 | 73 | 315 | 6.0 | 12.0 | 0.00 | 0.00 | 0.00 | 23 | 1009.7 |
| 20260507141549 | 73 | 315 | 7.0 | 12.0 | 0.00 | 0.00 | 0.00 | 23 | 1009.8 |